Airfield :
LOGIN :

Register | Disclaimer

   EN    FR    IT 

 










Legend :    VFR   Marginal VFR   IFR   Intensive IFR   Very Intensive IFR
Visi :
Ceiling :
>= 8 km
>= 3000ft
5 to 8 km
1000 to 3000 ft
1500m to 5 km
500 to 1000 ft
800 to 1500m
200 to 500 ft
< 800m
< 200 ft
Symbols :   Thunderstorms  Fog  Heavy snow  Heavy precipitations  Wind > 20 kt
SIGMETs :     Misc.  Thunderstorms  Icing  Turbulence  Mountain Waves  Volcanic Ashes






- Airport Elevation : 280 ft
- IATA code : FAE


EKVG - Vagar

CURRENT METAR :
  • 200020Z AUTO 01005KT 330V040 9999 BKN041/// 04/02 Q1012

EXPIRED METARs :
  • 192350Z AUTO 01006KT 9999 BKN031/// 04/02 Q1012
  • 192320Z AUTO 02005KT 9999 FEW028/// SCT046/// SCT073/// 03/02 Q1013
  • 192250Z AUTO 03007KT 9999 -RA OVC030/// 04/02 Q1013
  • 192220Z AUTO 03005KT 010V110 9999 -RA FEW024/// SCT035/// BKN065/// 04/02 Q1013
  • 192150Z AUTO 02008KT 9999 -RA BKN026/// 04/02 Q1013

Expired Forecast.



MET'MAP, your aeronautical weather chart ! - Copyright ORBIFLY December 2007 - Disclaimer

ORBIFLY MET'MAP TEAM :

Programming & Development : Alexandra Zaïnal
Concept & original design : Baudouin d'Aumeries
Assistance for programming : Marc-Olivier Méhu
Technical & hardware support : Manuel Goepfert

Contact : metmap@orbifly.com




SOURCES & CREDITS :

   NOAA